Location: Poughquag
(41.6090°N, 73.6820°W)
Time: 13:55:41
(UTC-04:00)

Explorer 11/Cluster Stage 4 - Pass Details

Date: 02 June 2020
Orbit: 467 x 1259 km, 28.8° (Epoch: 05 July)

Event Time Altitude Azimuth Distance (km) Brightness Sun altitude
Rises 04:48:26 0° 203° (SSW) 3,159 - -6.1°
Exits shadow 04:49:00 - 199° (SSW) 3,024 9.1 -6.0°
Reaches altitude 10° 04:52:39 10° 170° (S) 2,450 8.9 -5.4°
Maximum altitude 04:54:30 11° 151° (SSE) 2,436 9.0 -5.2°
Drops below altitude 10° 04:56:27 10° 133° (SE) 2,634 9.4 -4.9°
Sets 05:01:32 0° 104° (ESE) 3,809 10.8 -4.1°
